Regional Weather Roundup
Issued by NWS

Home | Current Version | Previous Version | Graphics & Text | Print | Product List | Glossary On
Versions: 1 2 3 4 5 6 7 8 9 10 11 12 13 14 15 16 17 18 19 20 21 22 23 24 25 26 27 28 29 30 31 32 33 34 35 36 37 38 39 40 41 42 43 44 45 46 47 48 49 50
688
ASUS43 KIND 281909
RWRIN

WEATHER ROUNDUP FOR INDIANA
NATIONAL WEATHER SERVICE INDIANAPOLIS IN
300 PM EDT TUE MAR 28 2017

NOTE: "FAIR" INDICATES FEW OR NO CLOUDS BELOW 12,000 FEET WITH NO
SIGNIFICANT WEATHER AND/OR OBSTRUCTIONS TO VISIBILITY.

* - STATION DOES NOT REPORT WEATHER SUCH AS PRECIPITATION OR FOG.

+ - STATION NOT QUALITY CONTROLLED BY THE NATIONAL WEATHER SERVICE.
    USE DATA WITH CAUTION...ESPECIALLY DEWPOINT AND RELATIVE
    HUMIDITY OBSERVATIONS.

INZ001>003-010>013-019-020-282000-
NORTHWEST INDIANA

CITY           SKY/WX    TMP DP  RH WIND       PRES   REMARKS
GARY /AIRPORT/ CLOUDY    43  37  81 N12G23    30.14S
KNOX *+        CLOUDY    45  27  49 N9        30.09F
LA PORTE +     CLOUDY    43  39  86 N10       30.10F
MICHIGAN CITY+ CLOUDY    41  41 100 N10       30.12S
MONTICELLO +   CLOUDY    49  41  73 N9        30.07F
RENSSELAER +   CLOUDY    45  41  87 N9        30.11R
VALPARAISO     CLOUDY    44  39  82 N10       30.11F

$$

LMZ046-743>745-282000-
SOUTHERN LAKE MICHIGAN

STATION/POSITION TIME  TEMP    WIND        PRES    WAVE
                       AIR SEA DIR/SP/G            HT
                 (UTC) (F)     (DEG/KT/KT) (MB)    (FT)
BURNS HARBOR     1840   39     360/ 12/ 13 1020.3F

$$

INZ004-005-014>016-021>024-282000-
NORTH CENTRAL INDIANA

CITY           SKY/WX    TMP DP  RH WIND       PRES   REMARKS
ELKHART        CLOUDY    46  41  81 N6        30.09R
GOSHEN         CLOUDY    48  40  73 N9        30.08S
LOGANSPORT +   CLOUDY    50  43  76 N6        30.08F
PERU/GRISSOM   CLOUDY    51  45  82 N10       30.06S
ROCHESTER +    CLOUDY    50  45  81 N6        30.09S
SOUTH BEND     CLOUDY    46  41  82 N5        30.10S
WARSAW +       CLOUDY    46  41  81 N5        30.08S

$$

INZ006>009-017-018-025>027-282000-
NORTHEAST INDIANA

CITY           SKY/WX    TMP DP  RH WIND       PRES   REMARKS
ANGOLA *+      CLOUDY    46  37  71 VRB5      30.07R
AUBURN +       CLOUDY    48  43  81 N3        30.08R
FORT WAYNE     CLOUDY    51  44  77 N6        30.07S
HUNTINGTON +   CLOUDY    50  45  83 N6        30.06S
KENDALLVILLE + CLOUDY    48  42  80 NE5       30.07S

$$

INZ028-029-035-036-043>045-051>053-282000-
WEST CENTRAL INDIANA

CITY           SKY/WX    TMP DP  RH WIND       PRES   REMARKS
CRAWFORDSVL +  CLOUDY    53  46  77 N7        30.07S
GREENCASTLE +  CLOUDY    55  45  67 NE5       30.06S
LAFAYETTE      CLOUDY    51  43  74 N8        30.08S
TERRE HAUTE    CLOUDY    60  47  61 N9        30.06S

$$

INZ030>032-037>040-046>048-054>057-064-065-282000-
CENTRAL INDIANA

CITY           SKY/WX    TMP DP  RH WIND       PRES   REMARKS
CP ATTERBURY + CLOUDY    55  48  76 N7        30.05S
COLUMBUS       CLOUDY    57  54  88 N9        30.05R
FISHERS *+     CLOUDY    54  48  82 N3        30.06S
FRANKFORT +    CLOUDY    55  48  75 N10       30.08S
GREENWOOD *+   CLOUDY    57  48  73 N5        30.05S
INDIANAPOLIS   CLOUDY    57  46  66 N8        30.05S
-EAGLE CREEK   CLOUDY    57  45  64 N8        30.05S
KOKOMO +       CLOUDY    52  45  77 N8        30.08R
MARION +       CLOUDY    53  46  76 N7        30.07S
MT COMFORT *+  CLOUDY    55  48  76 N7        30.06R
SHELBYVILLE    CLOUDY    57  48  72 N12       30.04S
ZIONSVILLE +   CLOUDY    53  47  80 N9        30.07R

$$

INZ033-034-041-042-049-050-058-059-282000-
EAST CENTRAL INDIANA

CITY           SKY/WX    TMP DP  RH WIND       PRES   REMARKS
MUNCIE         CLOUDY    53  47  79 N8        30.05S
RICHMOND +     CLOUDY    52  48  87 N8        30.04S FOG

$$

INZ060-061-067>069-081>083-085>088-282000-
SOUTHWEST INDIANA

CITY           SKY/WX    TMP DP  RH WIND       PRES   REMARKS
EVANSVILLE     CLOUDY    59  50  72 NE6       30.06F HAZE
HUNTINGBURG *+ CLOUDY    60  53  77 NW7       30.04S
WASHINGTON +   CLOUDY    58  48  69 MISG      30.05R

$$

INZ062-063-066-070>080-084-089>092-282000-
SOUTH CENTRAL AND SOUTHEAST INDIANA

CITY           SKY/WX    TMP DP  RH WIND       PRES   REMARKS
BEDFORD +      CLOUDY    57  50  77 CALM      30.04S
BLOOMINGTON    CLOUDY    58  47  66 N5        30.04F
MADISON *+     CLOUDY    61  52  72 NW9       30.04S
NORTH VERNON + CLOUDY   N/A N/A N/A N8        30.04S
SEYMOUR +      CLOUDY    59  50  72 N6        30.04R

$$





USA.gov is the U.S. government's official web portal to all federal, state and local government web resources and services.